User: anonymous   Login
Location: Unspecified
(0.0000°N, 0.0000°E)
Time: 02:13:48
(UTC+02:00)
Language:

Resurs 1-3 - Orbit

View from above orbital plane
View from above orbital plane
View from above satellite
View from above satellite

Ground track
Ground track

The orbit data is extracted from the following two-line orbital elements,

1 23342U 94074A   16180.50606618  .00000022  00000-0  10160-4 0  9992
2 23342  98.1187 210.1441 0001717 111.9782 248.1611 14.79179324165493
Epoch (UTC): 28 June 2016 12:08:44
Eccentricity: 0.0001717
inclination: 98.1187°
perigee height: 631 km
apogee height: 633 km
right ascension of ascending node: 210.1441°
argument of perigee: 111.9782°
revolutions per day: 14.79179324
mean anomaly at epoch: 248.1611°
orbit number at epoch: 16549

The dashed part of the orbit path shows where the satellite is in the earth's shadow,  

DLR